"read_dt","SO2 (ppb)","flags","PMT voltage (V)","lamp voltage (V)","lamp intensity (Hz)","internal temp (C)","react chamber temp (C)","sample flow (l/min)","pres (mmHg)","SO2 bkg (ppb)","SO2 coefficient"
2015-08-27 00:00:00,2095E-3,5C000400,-0724,0819,12260,027.9,045.4,0.256,753.3,01.17,0.508
2015-08-27 00:01:00,2075E-3,5C000400,-0724,0819,12154,027.9,045.4,0.257,753.3,01.17,0.508
2015-08-27 00:02:00,2125E-3,5C000400,-0724,0819,12428,027.9,045.4,0.256,753.4,01.17,0.508
2015-08-27 00:03:00,1962E-3,5C000400,-0724,0818,12397,027.9,045.5,0.257,753.3,01.17,0.508
2015-08-27 00:04:00,2045E-3,5C000400,-0724,0819,12261,027.9,045.4,0.256,753.3,01.17,0.508
2015-08-27 00:05:00,2040E-3,5C000400,-0724,0819,12332,027.9,045.4,0.257,753.3,01.17,0.508
2015-08-27 00:06:00,2115E-3,5C000400,-0724,0819,12375,027.9,045.5,0.256,753.3,01.17,0.508
2015-08-27 00:07:00,2178E-3,5C000400,-0724,0819,12280,027.9,045.5,0.257,753.4,01.17,0.508
2015-08-27 00:08:00,2168E-3,5C000400,-0724,0819,12314,027.9,045.5,0.256,753.3,01.17,0.508
2015-08-27 00:09:00,1975E-3,5C000400,-0724,0819,12415,027.9,045.5,0.257,753.4,01.17,0.508
2015-08-27 00:10:00,2035E-3,5C000400,-0724,0820,12243,027.9,045.5,0.256,753.4,01.17,0.508
2015-08-27 00:11:00,2021E-3,5C000400,-0724,0819,12352,027.9,045.4,0.257,753.4,01.17,0.508
2015-08-27 00:12:00,2094E-3,5C000400,-0724,0819,12266,027.9,045.4,0.256,753.4,01.17,0.508
2015-08-27 00:13:00,2026E-3,5C000400,-0724,0818,12259,027.9,045.5,0.257,753.4,01.17,0.508
2015-08-27 00:14:00,2004E-3,5C000400,-0724,0819,12326,027.9,045.5,0.256,753.4,01.17,0.508
2015-08-27 00:15:00,2078E-3,5C000400,-0724,0818,12326,027.9,045.5,0.257,753.4,01.17,0.508
2015-08-27 00:16:00,2088E-3,5C000400,-0724,0819,12255,027.9,045.5,0.256,753.4,01.17,0.508
2015-08-27 00:17:00,2023E-3,5C000400,-0724,0819,12295,027.9,045.5,0.257,753.4,01.17,0.508
2015-08-27 00:18:00,2197E-3,5C000400,-0724,0818,12422,027.9,045.5,0.256,753.4,01.17,0.508
2015-08-27 00:19:00,2023E-3,5C000400,-0724,0818,12286,027.9,045.5,0.257,753.4,01.17,0.508
2015-08-27 00:20:00,2084E-3,5C000400,-0724,0818,12343,027.9,045.4,0.257,753.4,01.17,0.508
2015-08-27 00:21:00,2103E-3,5C000400,-0724,0818,12191,027.9,045.4,0.256,753.3,01.17,0.508
2015-08-27 00:22:00,2182E-3,5C000400,-0724,0820,12191,027.9,045.5,0.257,753.3,01.17,0.508
2015-08-27 00:23:00,2042E-3,5C000400,-0724,0819,12288,027.9,045.5,0.257,753.3,01.17,0.508
2015-08-27 00:24:00,2084E-3,5C000400,-0724,0819,12310,027.9,045.5,0.257,753.3,01.17,0.508
2015-08-27 00:25:00,2216E-3,5C000400,-0724,0818,12242,027.9,045.5,0.257,753.2,01.17,0.508
2015-08-27 00:26:00,2126E-3,5C000400,-0724,0819,12046,027.9,045.5,0.256,753.3,01.17,0.508
2015-08-27 00:27:00,2266E-3,5C000400,-0724,0819,12057,027.9,045.5,0.257,753.3,01.17,0.508
2015-08-27 00:28:00,2051E-3,5C000400,-0724,0819,12092,027.9,045.5,0.256,753.3,01.17,0.508
2015-08-27 00:29:00,2178E-3,5C000400,-0724,0819,12323,027.9,045.4,0.257,753.3,01.17,0.508
2015-08-27 00:30:00,2061E-3,5C000400,-0724,0819,12456,027.9,045.5,0.256,753.3,01.17,0.508
2015-08-27 00:31:00,2037E-3,5C000400,-0724,0818,12205,027.9,045.4,0.257,753.3,01.17,0.508
2015-08-27 00:32:00,2071E-3,5C000400,-0724,0820,12263,027.9,045.4,0.256,753.3,01.17,0.508
2015-08-27 00:33:00,2027E-3,5C000400,-0724,0818,12399,027.9,045.4,0.257,753.4,01.17,0.508
2015-08-27 00:34:00,1950E-3,5C000400,-0724,0819,12160,027.9,045.5,0.256,753.4,01.17,0.508
2015-08-27 00:35:00,2127E-3,5C000400,-0724,0819,12110,027.9,045.4,0.256,753.4,01.17,0.508
2015-08-27 00:36:00,2002E-3,5C000400,-0724,0818,12188,027.9,045.5,0.256,753.3,01.17,0.508
2015-08-27 00:37:00,2010E-3,5C000400,-0724,0820,12253,027.9,045.5,0.256,753.3,01.17,0.508
2015-08-27 00:38:00,2060E-3,5C000400,-0724,0819,12332,027.9,045.5,0.257,753.4,01.17,0.508
2015-08-27 00:39:00,2053E-3,5C000400,-0724,0819,12478,027.9,045.4,0.256,753.3,01.17,0.508
2015-08-27 00:40:00,2004E-3,5C000400,-0724,0819,12274,027.9,045.5,0.257,753.4,01.17,0.508
2015-08-27 00:41:00,2043E-3,5C000400,-0724,0818,12171,027.9,045.5,0.256,753.4,01.17,0.508
2015-08-27 00:42:00,2000E-3,5C000400,-0724,0819,12326,027.9,045.5,0.257,753.4,01.17,0.508
2015-08-27 00:43:00,2208E-3,5C000400,-0724,0819,12267,027.9,045.5,0.256,753.4,01.17,0.508
2015-08-27 00:44:00,2127E-3,5C000400,-0724,0819,12443,027.9,045.5,0.257,753.4,01.17,0.508
2015-08-27 00:45:00,2067E-3,5C000400,-0724,0819,12273,027.9,045.4,0.256,753.4,01.17,0.508
2015-08-27 00:46:00,2058E-3,5C000400,-0724,0819,12176,027.9,045.5,0.257,753.4,01.17,0.508
2015-08-27 00:47:00,1992E-3,5C000400,-0724,0819,12382,027.9,045.5,0.256,753.4,01.17,0.508
2015-08-27 00:48:00,2116E-3,5C000400,-0724,0819,12402,027.9,045.5,0.257,753.4,01.17,0.508
2015-08-27 00:49:00,2145E-3,5C000400,-0724,0819,12228,027.9,045.5,0.256,753.4,01.17,0.508
2015-08-27 00:50:00,2178E-3,5C000400,-0724,0819,12298,027.9,045.5,0.257,753.4,01.17,0.508
2015-08-27 00:51:00,2128E-3,5C000400,-0724,0818,12310,027.9,045.5,0.256,753.5,01.17,0.508
2015-08-27 00:52:00,2031E-3,5C000400,-0724,0819,12386,027.9,045.5,0.257,753.4,01.17,0.508
2015-08-27 00:53:00,2115E-3,5C000400,-0724,0819,12402,027.9,045.5,0.256,753.4,01.17,0.508
2015-08-27 00:54:00,2053E-3,5C000400,-0724,0818,12360,027.9,045.5,0.257,753.5,01.17,0.508
2015-08-27 00:55:00,2111E-3,5C000400,-0724,0818,12195,027.9,045.4,0.256,753.5,01.17,0.508
2015-08-27 00:56:00,1976E-3,5C000400,-0724,0818,12219,027.9,045.4,0.256,753.4,01.17,0.508
2015-08-27 00:57:00,2043E-3,5C000400,-0724,0819,12468,027.9,045.5,0.257,753.4,01.17,0.508
2015-08-27 00:58:00,2105E-3,5C000400,-0724,0819,12152,027.9,045.5,0.256,753.4,01.17,0.508
2015-08-27 00:59:00,2118E-3,5C000400,-0724,0818,12237,028.0,045.5,0.256,753.4,01.17,0.508
2015-08-27 01:00:00,2189E-3,5C000400,-0724,0818,12359,028.0,045.5,0.256,753.4,01.17,0.508
2015-08-27 01:01:00,1994E-3,5C000400,-0724,0818,12144,027.9,045.4,0.257,753.4,01.17,0.508
2015-08-27 01:02:00,2149E-3,5C000400,-0724,0819,12198,028.0,045.5,0.256,753.3,01.17,0.508
2015-08-27 01:03:00,2065E-3,5C000400,-0724,0819,12298,028.0,045.5,0.256,753.4,01.17,0.508
2015-08-27 01:04:00,2146E-3,5C000400,-0724,0818,12326,028.0,045.4,0.256,753.4,01.17,0.508
2015-08-27 01:05:00,2012E-3,5C000400,-0724,0818,12406,027.9,045.4,0.256,753.4,01.17,0.508
2015-08-27 01:06:00,2018E-3,5C000400,-0724,0819,12486,028.0,045.5,0.256,753.3,01.17,0.508
2015-08-27 01:07:00,1969E-3,5C000400,-0724,0819,12230,028.0,045.5,0.256,753.4,01.17,0.508
2015-08-27 01:08:00,1993E-3,5C000400,-0724,0819,12246,028.0,045.5,0.256,753.3,01.17,0.508
2015-08-27 01:09:00,2107E-3,5C000400,-0724,0819,12306,028.0,045.5,0.256,753.3,01.17,0.508
2015-08-27 01:10:00,2130E-3,5C000400,-0724,0819,12232,028.0,045.5,0.256,753.3,01.17,0.508
2015-08-27 01:11:00,2124E-3,5C000400,-0724,0820,12128,028.0,045.5,0.256,753.4,01.17,0.508
2015-08-27 01:12:00,2102E-3,5C000400,-0724,0819,12352,028.0,045.5,0.256,753.3,01.17,0.508
2015-08-27 01:13:00,2026E-3,5C000400,-0724,0818,12295,028.0,045.5,0.256,753.2,01.17,0.508
2015-08-27 01:14:00,2126E-3,5C000400,-0724,0818,12266,028.0,045.5,0.256,753.3,01.17,0.508
2015-08-27 01:15:00,2192E-3,5C000400,-0724,0818,12328,028.0,045.5,0.256,753.3,01.17,0.508
2015-08-27 01:16:00,2007E-3,5C000400,-0724,0818,12156,028.0,045.5,0.256,753.3,01.17,0.508
2015-08-27 01:17:00,1980E-3,5C000400,-0724,0818,12348,028.0,045.5,0.256,753.2,01.17,0.508
2015-08-27 01:18:00,2137E-3,5C000400,-0724,0819,12321,028.0,045.4,0.256,753.3,01.17,0.508
2015-08-27 01:19:00,2015E-3,5C000400,-0724,0819,12304,028.0,045.4,0.257,753.2,01.17,0.508
2015-08-27 01:20:00,2052E-3,5C000400,-0724,0819,12317,028.0,045.4,0.256,753.2,01.17,0.508
2015-08-27 01:21:00,2073E-3,5C000400,-0724,0819,12184,028.0,045.5,0.256,753.2,01.17,0.508
2015-08-27 01:22:00,2154E-3,5C000400,-0724,0818,12265,028.0,045.5,0.256,753.3,01.17,0.508
2015-08-27 01:23:00,2086E-3,5C000400,-0724,0819,12273,028.0,045.4,0.257,753.1,01.17,0.508
2015-08-27 01:24:00,2148E-3,5C000400,-0724,0819,12382,028.0,045.5,0.257,753.2,01.17,0.508
2015-08-27 01:25:00,2089E-3,5C000400,-0724,0818,12438,028.0,045.5,0.257,753.1,01.17,0.508
2015-08-27 01:26:00,2086E-3,5C000400,-0724,0819,12319,028.0,045.5,0.257,753.1,01.17,0.508
2015-08-27 01:27:00,2065E-3,5C000400,-0724,0819,12203,028.0,045.5,0.256,753.2,01.17,0.508
2015-08-27 01:28:00,2273E-3,5C000400,-0724,0819,12388,028.0,045.5,0.256,753.2,01.17,0.508
2015-08-27 01:29:00,2053E-3,5C000400,-0724,0818,12162,028.0,045.5,0.256,753.3,01.17,0.508
2015-08-27 01:30:00,2094E-3,5C000400,-0724,0820,12314,028.0,045.4,0.256,753.2,01.17,0.508
2015-08-27 01:31:00,2210E-3,5C000400,-0724,0820,12241,028.0,045.5,0.256,753.3,01.17,0.508
2015-08-27 01:32:00,2067E-3,5C000400,-0724,0820,12290,028.0,045.5,0.256,753.3,01.17,0.508
2015-08-27 01:33:00,2108E-3,5C000400,-0724,0819,12308,028.0,045.5,0.256,753.3,01.17,0.508
2015-08-27 01:34:00,2138E-3,5C000400,-0724,0820,12310,028.0,045.5,0.256,753.3,01.17,0.508
2015-08-27 01:35:00,1980E-3,5C000400,-0724,0820,12342,028.1,045.5,0.256,753.3,01.17,0.508
2015-08-27 01:36:00,2151E-3,5C000400,-0724,0820,12412,028.0,045.5,0.256,753.3,01.17,0.508
2015-08-27 01:37:00,2094E-3,5C000400,-0724,0819,12308,028.1,045.5,0.256,753.3,01.17,0.508
2015-08-27 01:38:00,2148E-3,5C000400,-0724,0821,12354,028.0,045.5,0.256,753.4,01.17,0.508
2015-08-27 01:39:00,1991E-3,5C000400,-0724,0820,12261,028.0,045.5,0.256,753.4,01.17,0.508
2015-08-27 01:40:00,2150E-3,5C000400,-0724,0819,12367,028.1,045.5,0.256,753.4,01.17,0.508
2015-08-27 01:41:00,2087E-3,5C000400,-0724,0820,12306,028.1,045.4,0.257,753.3,01.17,0.508
2015-08-27 01:42:00,2066E-3,5C000400,-0724,0820,12273,028.1,045.5,0.256,753.2,01.17,0.508
2015-08-27 01:43:00,2102E-3,5C000400,-0724,0820,12272,028.0,045.5,0.256,753.3,01.17,0.508
2015-08-27 01:44:00,2107E-3,5C000400,-0724,0820,12368,028.1,045.5,0.256,753.3,01.17,0.508
2015-08-27 01:45:00,2116E-3,5C000400,-0724,0819,12319,028.1,045.5,0.256,753.4,01.17,0.508
2015-08-27 01:46:00,2068E-3,5C000400,-0724,0818,12096,028.1,045.4,0.256,753.4,01.17,0.508
2015-08-27 01:47:00,1972E-3,5C000400,-0724,0820,12350,028.1,045.4,0.256,753.3,01.17,0.508
2015-08-27 01:48:00,2143E-3,5C000400,-0724,0819,12368,028.1,045.5,0.256,753.3,01.17,0.508
2015-08-27 01:49:00,2103E-3,5C000400,-0724,0819,12268,028.1,045.5,0.256,753.3,01.17,0.508
2015-08-27 01:50:00,2062E-3,5C000400,-0724,0820,12248,028.1,045.5,0.256,753.5,01.17,0.508
2015-08-27 01:51:00,2077E-3,5C000400,-0724,0819,12171,028.1,045.5,0.256,753.4,01.17,0.508
2015-08-27 01:52:00,2130E-3,5C000400,-0724,0820,12327,028.1,045.4,0.256,753.4,01.17,0.508
2015-08-27 01:53:00,2140E-3,5C000400,-0724,0819,12386,028.1,045.5,0.256,753.5,01.17,0.508
2015-08-27 01:54:00,2099E-3,5C000400,-0724,0820,12332,028.1,045.5,0.256,753.4,01.17,0.508
2015-08-27 01:55:00,2155E-3,5C000400,-0724,0820,12245,028.1,045.5,0.256,753.4,01.17,0.508
2015-08-27 01:56:00,2024E-3,5C000400,-0724,0820,12326,028.1,045.5,0.256,753.4,01.17,0.508
2015-08-27 01:57:00,2105E-3,5C000400,-0724,0819,12287,028.1,045.4,0.256,753.2,01.17,0.508
2015-08-27 01:58:00,2016E-3,5C000400,-0724,0819,12385,028.1,045.5,0.256,753.4,01.17,0.508
2015-08-27 01:59:00,2110E-3,5C000400,-0724,0819,12199,028.1,045.5,0.256,753.3,01.17,0.508
2015-08-27 02:00:00,2199E-3,5C000400,-0724,0820,12363,028.1,045.5,0.256,753.3,01.17,0.508
2015-08-27 02:01:00,2005E-3,5C000400,-0724,0819,12357,028.1,045.4,0.256,753.4,01.17,0.508
2015-08-27 02:02:00,2079E-3,5C000400,-0724,0819,12330,028.1,045.4,0.256,753.3,01.17,0.508
2015-08-27 02:03:00,2115E-3,5C000400,-0724,0819,12253,028.1,045.5,0.256,753.2,01.17,0.508
2015-08-27 02:04:00,2016E-3,5C000400,-0724,0820,12362,028.1,045.5,0.256,753.2,01.17,0.508
2015-08-27 02:05:00,2110E-3,5C000400,-0724,0819,12209,028.2,045.5,0.256,753.2,01.17,0.508
2015-08-27 02:06:00,2009E-3,5C000400,-0724,0820,12385,028.2,045.4,0.256,753.3,01.17,0.508
2015-08-27 02:07:00,2013E-3,5C000400,-0724,0820,12275,028.2,045.4,0.256,753.3,01.17,0.508
2015-08-27 02:08:00,2132E-3,5C000400,-0724,0819,12279,028.2,045.5,0.256,753.1,01.17,0.508
2015-08-27 02:09:00,2073E-3,5C000400,-0724,0819,12299,028.2,045.5,0.256,753.3,01.17,0.508
2015-08-27 02:10:00,2058E-3,5C000400,-0724,0819,12530,028.2,045.5,0.256,753.3,01.17,0.508
2015-08-27 02:11:00,2055E-3,5C000400,-0724,0819,12163,028.2,045.5,0.256,753.2,01.17,0.508
2015-08-27 02:12:00,2126E-3,5C000400,-0724,0820,12341,028.2,045.5,0.256,753.2,01.17,0.508
2015-08-27 02:13:00,2120E-3,5C000400,-0724,0820,12180,028.2,045.5,0.256,753.3,01.17,0.508
2015-08-27 02:14:00,2008E-3,5C000400,-0724,0820,12308,028.2,045.5,0.256,753.3,01.17,0.508
2015-08-27 02:15:00,2061E-3,5C000400,-0724,0820,12292,028.2,045.5,0.256,753.3,01.17,0.508
2015-08-27 02:16:00,2135E-3,5C000400,-0724,0820,12370,028.2,045.5,0.256,753.3,01.17,0.508
2015-08-27 02:17:00,2178E-3,5C000400,-0724,0821,12377,028.2,045.5,0.256,753.3,01.17,0.508
2015-08-27 02:18:00,2145E-3,5C000400,-0724,0819,12378,028.2,045.5,0.256,753.4,01.17,0.508
2015-08-27 02:19:00,2202E-3,5C000400,-0724,0820,12220,028.2,045.4,0.256,753.5,01.17,0.508
2015-08-27 02:20:00,2149E-3,5C000400,-0724,0820,12310,028.2,045.5,0.256,753.4,01.17,0.508
2015-08-27 02:21:00,1960E-3,5C000400,-0724,0820,12317,028.2,045.5,0.256,753.4,01.17,0.508
2015-08-27 02:22:00,2060E-3,5C000400,-0724,0820,12420,028.2,045.5,0.256,753.4,01.17,0.508
2015-08-27 02:23:00,2157E-3,5C000400,-0724,0820,12341,028.2,045.5,0.256,753.4,01.17,0.508
2015-08-27 02:24:00,2183E-3,5C000400,-0724,0819,12263,028.2,045.5,0.256,753.3,01.17,0.508
2015-08-27 02:25:00,2008E-3,5C000400,-0724,0820,12298,028.2,045.5,0.256,753.3,01.17,0.508
2015-08-27 02:26:00,2007E-3,5C000400,-0724,0820,12363,028.3,045.5,0.256,753.4,01.17,0.508
2015-08-27 02:27:00,2182E-3,5C000400,-0724,0819,12230,028.2,045.5,0.256,753.4,01.17,0.508
2015-08-27 02:28:00,2197E-3,5C000400,-0724,0820,12263,028.3,045.5,0.256,753.4,01.17,0.508
2015-08-27 02:29:00,2117E-3,5C000400,-0724,0821,12194,028.3,045.5,0.256,753.3,01.17,0.508
2015-08-27 02:30:00,2041E-3,5C000400,-0724,0820,12403,028.3,045.5,0.256,753.4,01.17,0.508
2015-08-27 02:31:00,2238E-3,5C000400,-0724,0819,12211,028.3,045.4,0.256,753.4,01.17,0.508
2015-08-27 02:32:00,2209E-3,5C000400,-0724,0819,12361,028.3,045.5,0.256,753.5,01.17,0.508
2015-08-27 02:33:00,2068E-3,5C000400,-0724,0819,12146,028.3,045.5,0.256,753.5,01.17,0.508
2015-08-27 02:34:00,2137E-3,5C000400,-0724,0819,12252,028.3,045.5,0.256,753.6,01.17,0.508
2015-08-27 02:35:00,2174E-3,5C000400,-0724,0819,12217,028.3,045.5,0.256,753.6,01.17,0.508
2015-08-27 02:36:00,2111E-3,5C000400,-0724,0820,12283,028.3,045.5,0.256,753.6,01.17,0.508
2015-08-27 02:37:00,2175E-3,5C000400,-0724,0820,12333,028.3,045.4,0.256,753.4,01.17,0.508
2015-08-27 02:38:00,2188E-3,5C000400,-0724,0820,12289,028.3,045.5,0.256,753.5,01.17,0.508
2015-08-27 02:39:00,2072E-3,5C000400,-0724,0819,12351,028.3,045.5,0.256,753.5,01.17,0.508
2015-08-27 02:40:00,2082E-3,5C000400,-0724,0820,12229,028.3,045.5,0.256,753.5,01.17,0.508
2015-08-27 02:41:00,2144E-3,5C000400,-0724,0820,12227,028.3,045.5,0.256,753.6,01.17,0.508
2015-08-27 02:42:00,2149E-3,5C000400,-0724,0820,12277,028.3,045.5,0.256,753.5,01.17,0.508
2015-08-27 02:43:00,2029E-3,5C000400,-0724,0820,12207,028.3,045.5,0.256,753.6,01.17,0.508
2015-08-27 02:44:00,2062E-3,5C000400,-0724,0819,12292,028.3,045.5,0.256,753.5,01.17,0.508
2015-08-27 02:45:00,2204E-3,5C000400,-0724,0819,12162,028.3,045.5,0.256,753.6,01.17,0.508
2015-08-27 02:46:00,2065E-3,5C000400,-0724,0820,12251,028.3,045.4,0.256,753.3,01.17,0.508
2015-08-27 02:47:00,2053E-3,5C000400,-0724,0819,12329,028.3,045.5,0.256,753.6,01.17,0.508
2015-08-27 02:48:00,2153E-3,5C000400,-0724,0819,12199,028.3,045.5,0.255,753.5,01.17,0.508
2015-08-27 02:49:00,2149E-3,5C000400,-0724,0819,12189,028.4,045.5,0.256,753.5,01.17,0.508
2015-08-27 02:50:00,2160E-3,5C000400,-0724,0819,12312,028.3,045.5,0.255,753.5,01.17,0.508
2015-08-27 02:51:00,2139E-3,5C000400,-0724,0820,12320,028.4,045.4,0.256,753.6,01.17,0.508
2015-08-27 02:52:00,2112E-3,5C000400,-0724,0819,12195,028.4,045.5,0.255,753.6,01.17,0.508
2015-08-27 02:53:00,2010E-3,5C000400,-0724,0819,12431,028.3,045.5,0.256,753.4,01.17,0.508
2015-08-27 02:54:00,2145E-3,5C000400,-0724,0819,12392,028.4,045.5,0.255,753.5,01.17,0.508
2015-08-27 02:55:00,1859E-3,5C000400,-0724,0819,12224,028.4,045.5,0.256,753.6,01.17,0.508
2015-08-27 02:56:00,2022E-3,5C000400,-0724,0820,12231,028.4,045.5,0.255,753.5,01.17,0.508
2015-08-27 02:57:00,2111E-3,5C000400,-0724,0820,12323,028.4,045.5,0.256,753.7,01.17,0.508
2015-08-27 02:58:00,2023E-3,5C000400,-0724,0819,12318,028.4,045.5,0.256,753.8,01.17,0.508
2015-08-27 02:59:00,2085E-3,5C000400,-0724,0820,12276,028.4,045.4,0.256,753.7,01.17,0.508
2015-08-27 03:00:00,2088E-3,5C000400,-0724,0819,12255,028.4,045.5,0.256,753.8,01.17,0.508
2015-08-27 03:01:00,2111E-3,5C000400,-0724,0819,12167,028.4,045.5,0.256,753.7,01.17,0.508
2015-08-27 03:02:00,2002E-3,5C000400,-0724,0820,12235,028.4,045.5,0.256,753.7,01.17,0.508
2015-08-27 03:03:00,1964E-3,5C000400,-0724,0820,12220,028.4,045.5,0.256,753.8,01.17,0.508
2015-08-27 03:04:00,2004E-3,5C000400,-0724,0819,12362,028.4,045.5,0.256,753.6,01.17,0.508
2015-08-27 03:05:00,2176E-3,5C000400,-0724,0820,12323,028.4,045.5,0.256,753.8,01.17,0.508
2015-08-27 03:06:00,2125E-3,5C000400,-0724,0820,12373,028.4,045.5,0.256,753.8,01.17,0.508
2015-08-27 03:07:00,2180E-3,5C000400,-0724,0820,12455,028.4,045.5,0.256,753.6,01.17,0.508
2015-08-27 03:08:00,2142E-3,5C000400,-0724,0819,12225,028.4,045.5,0.256,753.9,01.17,0.508
2015-08-27 03:09:00,2141E-3,5C000400,-0724,0820,12289,028.4,045.5,0.256,753.9,01.17,0.508
2015-08-27 03:10:00,2074E-3,5C000400,-0724,0820,12138,028.4,045.5,0.256,753.9,01.17,0.508
2015-08-27 03:11:00,2175E-3,5C000400,-0724,0819,12343,028.5,045.5,0.256,753.9,01.17,0.508
2015-08-27 03:12:00,2014E-3,5C000400,-0724,0820,12283,028.5,045.5,0.256,753.7,01.17,0.508
2015-08-27 03:13:00,2012E-3,5C000400,-0724,0820,12292,028.5,045.5,0.255,753.8,01.17,0.508
2015-08-27 03:14:00,2225E-3,5C000400,-0724,0820,12391,028.5,045.5,0.256,753.7,01.17,0.508
2015-08-27 03:15:00,2063E-3,5C000400,-0724,0819,12487,028.5,045.5,0.255,753.9,01.17,0.508
2015-08-27 03:16:00,1923E-3,5C000400,-0724,0820,12259,028.5,045.5,0.256,753.8,01.17,0.508
2015-08-27 03:17:00,1996E-3,5C000400,-0724,0820,12503,028.5,045.5,0.255,753.8,01.17,0.508
2015-08-27 03:18:00,2156E-3,5C000400,-0724,0820,12402,028.5,045.5,0.256,753.8,01.17,0.508
2015-08-27 03:19:00,1972E-3,5C000400,-0724,0819,12217,028.5,045.5,0.255,753.7,01.17,0.508
2015-08-27 03:20:00,2104E-3,5C000400,-0724,0820,12147,028.5,045.5,0.256,754.0,01.17,0.508
2015-08-27 03:21:00,2070E-3,5C000400,-0724,0819,12304,028.5,045.5,0.256,754.1,01.17,0.508
2015-08-27 03:22:00,2139E-3,5C000400,-0724,0820,12373,028.5,045.5,0.256,753.9,01.17,0.508
2015-08-27 03:23:00,2146E-3,5C000400,-0724,0820,12360,028.5,045.5,0.256,753.9,01.17,0.508
2015-08-27 03:24:00,2143E-3,5C000400,-0724,0820,12127,028.5,045.5,0.255,754.0,01.17,0.508
2015-08-27 03:25:00,2090E-3,5C000400,-0724,0820,12453,028.5,045.5,0.256,754.0,01.17,0.508
2015-08-27 03:26:00,2084E-3,5C000400,-0724,0820,12242,028.5,045.5,0.256,754.1,01.17,0.508
2015-08-27 03:27:00,2180E-3,5C000400,-0724,0820,12132,028.5,045.5,0.256,754.2,01.17,0.508
2015-08-27 03:28:00,2117E-3,5C000400,-0724,0820,12324,028.5,045.5,0.255,754.1,01.17,0.508
2015-08-27 03:29:00,2010E-3,5C000400,-0724,0820,12382,028.5,045.5,0.256,754.2,01.17,0.508
2015-08-27 03:30:00,2029E-3,5C000400,-0724,0820,12383,028.5,045.5,0.255,754.2,01.17,0.508
2015-08-27 03:31:00,2151E-3,5C000400,-0724,0819,12253,028.5,045.5,0.255,754.1,01.17,0.508
2015-08-27 03:32:00,2117E-3,5C000400,-0724,0819,12241,028.5,045.5,0.255,754.2,01.17,0.508
2015-08-27 03:33:00,2007E-3,5C000400,-0724,0820,12419,028.5,045.5,0.255,754.1,01.17,0.508
2015-08-27 03:34:00,2040E-3,5C000400,-0724,0820,12417,028.5,045.5,0.255,754.1,01.17,0.508
2015-08-27 03:35:00,2146E-3,5C000400,-0724,0820,12351,028.5,045.5,0.255,754.1,01.17,0.508
2015-08-27 03:36:00,2165E-3,5C000400,-0724,0821,12322,028.5,045.5,0.256,754.1,01.17,0.508
2015-08-27 03:37:00,2152E-3,5C000400,-0724,0821,12172,028.6,045.5,0.255,754.2,01.17,0.508
2015-08-27 03:38:00,2141E-3,5C000400,-0724,0820,12495,028.5,045.5,0.255,754.1,01.17,0.508
2015-08-27 03:39:00,2086E-3,5C000400,-0724,0820,12261,028.6,045.5,0.255,754.2,01.17,0.508
2015-08-27 03:40:00,2035E-3,5C000400,-0724,0820,12277,028.6,045.5,0.255,754.2,01.17,0.508
2015-08-27 03:41:00,2159E-3,5C000400,-0724,0820,12333,028.6,045.5,0.256,754.3,01.17,0.508
2015-08-27 03:42:00,2108E-3,5C000400,-0724,0819,12203,028.6,045.5,0.255,754.1,01.17,0.508
2015-08-27 03:43:00,2106E-3,5C000400,-0724,0819,12359,028.6,045.5,0.255,754.2,01.17,0.508
2015-08-27 03:44:00,2063E-3,5C000400,-0724,0819,12126,028.6,045.5,0.256,754.3,01.17,0.508
2015-08-27 03:45:00,2192E-3,5C000400,-0724,0820,12344,028.6,045.5,0.255,754.2,01.17,0.508
2015-08-27 03:46:00,2036E-3,5C000400,-0724,0820,12236,028.6,045.5,0.255,754.1,01.17,0.508
2015-08-27 03:47:00,2053E-3,5C000400,-0724,0820,12374,028.6,045.5,0.255,754.3,01.17,0.508
2015-08-27 03:48:00,2067E-3,5C000400,-0724,0820,12364,028.6,045.5,0.255,754.2,01.17,0.508
2015-08-27 03:49:00,2000E-3,5C000400,-0724,0820,12171,028.6,045.5,0.256,754.2,01.17,0.508
2015-08-27 03:50:00,2054E-3,5C000400,-0724,0821,12315,028.6,045.5,0.255,754.4,01.17,0.508
2015-08-27 03:51:00,2179E-3,5C000400,-0724,0820,12267,028.6,045.5,0.255,754.3,01.17,0.508
2015-08-27 03:52:00,2046E-3,5C000400,-0724,0820,12322,028.6,045.5,0.255,754.4,01.17,0.508
2015-08-27 03:53:00,2003E-3,5C000400,-0724,0820,12331,028.6,045.5,0.255,754.3,01.17,0.508
2015-08-27 03:54:00,2115E-3,5C000400,-0724,0820,12271,028.6,045.5,0.256,754.4,01.17,0.508
2015-08-27 03:55:00,2123E-3,5C000400,-0724,0820,12338,028.6,045.5,0.255,754.4,01.17,0.508
2015-08-27 03:56:00,2161E-3,5C000400,-0724,0820,12278,028.6,045.5,0.255,754.4,01.17,0.508
2015-08-27 03:57:00,2102E-3,5C000400,-0724,0820,12301,028.6,045.5,0.255,754.4,01.17,0.508
2015-08-27 03:58:00,2331E-3,5C000400,-0724,0821,12248,028.6,045.5,0.255,754.1,01.17,0.508
2015-08-27 03:59:00,2065E-3,5C000400,-0724,0820,12241,028.6,045.5,0.256,754.2,01.17,0.508
2015-08-27 04:00:00,2232E-3,5C000400,-0724,0820,12457,028.6,045.5,0.255,754.3,01.17,0.508
2015-08-27 04:01:00,1994E-3,5C000400,-0724,0820,12288,028.6,045.5,0.255,754.2,01.17,0.508
2015-08-27 04:02:00,2139E-3,5C000400,-0724,0820,12418,028.6,045.5,0.255,754.2,01.17,0.508
2015-08-27 04:03:00,2103E-3,5C000400,-0724,0819,12335,028.7,045.5,0.255,754.3,01.17,0.508
2015-08-27 04:04:00,2108E-3,5C000400,-0724,0820,12314,028.7,045.5,0.255,754.4,01.17,0.508
2015-08-27 04:05:00,2142E-3,5C000400,-0724,0819,12197,028.7,045.5,0.255,754.2,01.17,0.508
2015-08-27 04:06:00,2055E-3,5C000400,-0724,0819,12173,028.7,045.5,0.255,754.5,01.17,0.508
2015-08-27 04:07:00,2160E-3,5C000400,-0724,0820,12339,028.7,045.5,0.255,754.2,01.17,0.508
2015-08-27 04:08:00,2111E-3,5C000400,-0724,0820,12334,028.7,045.5,0.255,754.3,01.17,0.508
2015-08-27 04:09:00,2038E-3,5C000400,-0724,0819,12222,028.7,045.5,0.255,754.4,01.17,0.508
2015-08-27 04:10:00,1970E-3,5C000400,-0724,0820,12233,028.7,045.5,0.255,754.3,01.17,0.508
2015-08-27 04:11:00,2045E-3,5C000400,-0724,0820,12382,028.7,045.5,0.255,754.4,01.17,0.508
2015-08-27 04:12:00,2312E-3,5C000400,-0724,0820,12407,028.7,045.5,0.255,754.4,01.17,0.508
2015-08-27 04:13:00,2201E-3,5C000400,-0724,0820,12243,028.7,045.5,0.255,754.3,01.17,0.508
2015-08-27 04:14:00,2022E-3,5C000400,-0724,0819,12220,028.7,045.5,0.255,754.3,01.17,0.508
2015-08-27 04:15:00,1978E-3,5C000400,-0724,0820,12274,028.7,045.5,0.255,754.2,01.17,0.508
2015-08-27 04:16:00,2183E-3,5C000400,-0724,0820,12154,028.7,045.5,0.255,754.5,01.17,0.508
2015-08-27 04:17:00,2066E-3,5C000400,-0724,0821,12193,028.7,045.5,0.255,754.2,01.17,0.508
2015-08-27 04:18:00,2096E-3,5C000400,-0724,0820,12379,028.7,045.5,0.255,754.3,01.17,0.508
2015-08-27 04:19:00,2159E-3,5C000400,-0724,0820,12348,028.7,045.5,0.255,754.5,01.17,0.508
2015-08-27 04:20:00,2093E-3,5C000400,-0724,0819,12237,028.7,045.5,0.255,754.3,01.17,0.508